Showing default

QIANFAN-26, 61559

Orbit data source: Space-Track

QIANFAN-26, 61559 is a Chinese payload satellite in LEO that was launched on Tue, 15 Oct 2024 UTC via a CHANG ZHENG 6A launch vehicle from the Taiyaun Space Center, China (TSC). Payload-class satellites include a variety of spacecraft equipped with specific instruments for various scientific and technological missions. These include communications satellites like Starlink; space stations such as the ISS; scientific satellites like the Hubble; Earth observation satellites from companies like Planet Labs, Umbra, and HawkEye 360; GPS; miniature CubeSats for education and research; and military/defense satellites.

Loading next visibility...
Identifier
61559, 2024-185H
Orbit
LEO
Country
Flag of CNCN / PRC
Related business
Manufacturer
GESIH/SECM
Mission
Operational Commercial Communications
Bus & Motor
QIANFAN, Unknown motor
Mass
267 kg wet, ~267 kg dry
Launch date (UTC)
2024-10-15 (1 year ago)
Launch vehicle
CHANG ZHENG 6A
Launch site
Taiyaun Space Center, China (TSC)
Object type
Payload
Rocket body
Debris
Shape & HBR
Box + 1 Pan, 5.0 m
Radar Cross Section
13.200 m², Large (>1 m²)

Expand to show TLE details & history
Last TLE update: 8 hours ago

TLE from 8 hours ago
0 QIANFAN-26
1 61559U 24185H   25309.92824800  .00000370  00000-0  35753-3 0  9994
2 61559  88.9787  83.7169 0007428 117.4087 242.7836 13.77780258 63603
Epoch: 2025-11-05T22:16Z
TLE epoch observation values (Epoch: 2025-11-05T22:16:40.627Z)
Latitude
0.00002°
Longitude
64.15374°
Altitude
977.263 km
Speed
7.362 km/s
True Right ascension
05h 34m 52s
True Declination
0° 00' 00"
Sunlit
Object was in full shadow at epoch
Visualization orbit readout
Latitude
Unknown
Longitude
Unknown
Altitude
Unknown
Speed
Unknown
Apparent Right ascension
Unknown
Apparent Declination
Unknown
Sunlit
N/A
Visualization observer readout
Local Sidereal Time
02:39:39
Azimuth
Unknown
Elevation
Unknown
Doppler factor
Unknown
Orbital elements
Apogee altitude
974.24 km
Perigee altitude
963.325 km
Semi-major axis
7,346.92 km
Eccentricity
0.00074
Inclination
88.9787°
RAAN
83.7169°
Arg. of periapsis
117.4087°
True anomaly
242.70794°
Mean anomaly
242.7836°
Eccentric anomaly
242.74577°
Mean motion
3.44656 °/min
Orbital period
104.45 mins
BSTAR
0.00035753
Loading maneuver chart data...
Computing Atmospheric mass density...
Loading historical data...
Loading historical data...
Loading historical data...
Loading historical data...
Loading historical data...
Loading historical data...
Loading historical data...

Documentation

Showing up to 5 results
|